Marathon, FL

11:48 PM EDT on September 24, 2016 (GMT -0400)
Florida Keys Marathon

Weather History for KMTH - December, 2013

Change the Weather History Date:

Saturday, December 14, 2013

  Actual Average Record
Temperature  
Mean Temperature 79 °F 72 °F  
Max Temperature 83 °F 77 °F 86 °F (2007)
Min Temperature 75 °F 67 °F 44 °F (2010)
Degree Days  
Heating Degree Days 0 1  
Month to date heating degree days 0 7  
Since 1 July heating degree days 1 8  
Cooling Degree Days 14 8  
Month to date cooling degree days 172 119  
Year to date cooling degree days 5428 4883  
Growing Degree Days 28 (Base 50)    
Moisture  
Dew Point 72 °F    
Average Humidity 77    
Maximum Humidity 85    
Minimum Humidity 69    
Precipitation  
Precipitation T in 0.07 in 0.56 in (2003)
Month to date precipitation 2.11 0.92  
Year to date precipitation 51.68 45.07  
Snow  
Snow 0.00 in - - ()
Month to date snowfall 0.0  
Since 1 July snowfall 0.0  
Snow Depth 0.00 in    
Sea Level Pressure  
Sea Level Pressure 30.03 in    
Wind  
Wind Speed 9 mph (SE)    
Max Wind Speed 14 mph    
Max Gust Speed 22 mph    
Visibility 10 miles    
Events      
T = Trace of Precipitation, MM = Missing Value Source: NWS Daily Summary

Daily Weather History Graph

Daily Weather History Graph

Search for Another Location

Airport or City:

Trip Planner

Search our weather history database for the weather conditions in past years. The results will help you decide how hot, cold, wet, or windy it might be!

Date:

Astronomy

Dec. 14, 2013 Rise Set
Actual Time 7:00 AM EST 5:37 PM EST
Civil Twilight 6:35 AM EST 6:02 PM EST
Nautical Twilight 6:07 AM EST 6:30 PM EST
Astronomical Twilight 5:39 AM EST 6:58 PM EST
Moon 3:49 PM EST (12/14) 4:30 AM EST (12/14)
Length of Visible Light 11h 26m
Length of Day
10h 37m
Waxing Gibbous, 93% of the Moon is Illuminated
Dec 14
Waxing Gibbous
Dec 17
Full
Dec 25
Last Quarter
Jan 1
New
Jan 7
First Quarter

Hourly Weather History & Observations

Time (EST) Temp. Heat Index Dew Point Humidity Pressure Visibility Wind Dir Wind Speed Gust Speed Precip Events Conditions
12:23 AM 75.9 °F - 71.1 °F 85% 30.06 in 10.0 mi ESE 11.5 mph 19.6 mph 0.00 in   Mostly Cloudy
12:53 AM 77.0 °F - 70.0 °F 79% 30.06 in 10.0 mi ESE 10.4 mph 19.6 mph 0.00 in   Scattered Clouds
1:53 AM 77.0 °F - 70.0 °F 79% 30.05 in 10.0 mi ESE 11.5 mph 20.7 mph N/A   Clear
2:53 AM 78.1 °F - 70.0 °F 76% 30.03 in 10.0 mi ESE 10.4 mph 20.7 mph N/A   Partly Cloudy
3:53 AM 77.0 °F - 70.0 °F 79% 30.03 in 10.0 mi ESE 6.9 mph 18.4 mph N/A   Partly Cloudy
4:53 AM 78.1 °F - 70.0 °F 76% 30.03 in 10.0 mi ESE 9.2 mph - N/A   Partly Cloudy
5:53 AM 78.1 °F - 70.0 °F 76% 30.03 in 10.0 mi SE 11.5 mph 17.3 mph N/A   Partly Cloudy
6:53 AM 78.1 °F - 71.1 °F 79% 30.04 in 10.0 mi SE 12.7 mph 18.4 mph N/A   Scattered Clouds
7:53 AM 78.1 °F - 70.0 °F 76% 30.05 in 10.0 mi SE 11.5 mph 17.3 mph N/A   Partly Cloudy
8:53 AM 79.0 °F - 71.1 °F 77% 30.07 in 10.0 mi ESE 8.1 mph - N/A   Partly Cloudy
9:53 AM 81.0 °F 85.2 °F 72.0 °F 74% 30.08 in 10.0 mi ESE 9.2 mph 16.1 mph N/A   Partly Cloudy
10:53 AM 82.0 °F 86.3 °F 71.1 °F 69% 30.06 in 10.0 mi SE 11.5 mph 17.3 mph N/A   Clear
11:53 AM 82.0 °F 86.3 °F 71.1 °F 69% 30.05 in 10.0 mi SE 11.5 mph 20.7 mph N/A   Partly Cloudy
12:53 PM 82.0 °F 86.7 °F 72.0 °F 71% 30.01 in 10.0 mi SE 9.2 mph 18.4 mph N/A   Scattered Clouds
1:53 PM 81.0 °F 85.2 °F 72.0 °F 74% 29.99 in 10.0 mi SE 8.1 mph 17.3 mph N/A   Mostly Cloudy
2:53 PM 81.0 °F 85.8 °F 73.0 °F 77% 29.98 in 10.0 mi SE 10.4 mph - N/A   Mostly Cloudy
3:53 PM 81.0 °F 85.2 °F 72.0 °F 74% 29.98 in 10.0 mi SE 9.2 mph 17.3 mph N/A   Mostly Cloudy
4:53 PM 80.1 °F 83.8 °F 72.0 °F 76% 29.99 in 10.0 mi SE 6.9 mph - N/A   Partly Cloudy
5:53 PM 79.0 °F - 72.0 °F 79% 30.00 in 10.0 mi SE 9.2 mph - N/A   Scattered Clouds
6:53 PM 79.0 °F - 72.0 °F 79% 30.01 in 10.0 mi SE 6.9 mph - N/A   Partly Cloudy
7:53 PM 79.0 °F - 73.0 °F 82% 30.02 in 10.0 mi SE 9.2 mph - N/A   Scattered Clouds
8:53 PM 79.0 °F - 73.0 °F 82% 30.02 in 10.0 mi SE 6.9 mph - N/A   Clear
9:53 PM 79.0 °F - 73.0 °F 82% 30.02 in 10.0 mi SE 6.9 mph - N/A   Clear
10:53 PM 79.0 °F - 73.0 °F 82% 30.02 in 10.0 mi SSE 8.1 mph - N/A   Partly Cloudy
11:53 PM 79.0 °F - 73.0 °F 82% 30.01 in 10.0 mi SSE 8.1 mph - N/A   Partly Cloudy